TimePST,TemperatureF,Dew PointF,Humidity,Sea Level PressureIn,VisibilityMPH,Wind Direction,Wind SpeedMPH,Gust SpeedMPH,PrecipitationIn,Events,Conditions,WindDirDegrees,DateUTC
12:53 AM,36.0,33.1,89,30.08,10.0,Calm,Calm,-,N/A,,Clear,0,2012-12-30 08:53:00
1:53 AM,33.1,30.9,92,30.09,10.0,Calm,Calm,-,N/A,,Clear,0,2012-12-30 09:53:00
2:53 AM,34.0,32.0,92,30.08,10.0,Calm,Calm,-,N/A,,Clear,0,2012-12-30 10:53:00
3:53 AM,35.1,32.0,89,30.06,10.0,Calm,Calm,-,N/A,,Clear,0,2012-12-30 11:53:00
4:53 AM,35.1,32.0,89,30.06,10.0,Calm,Calm,-,N/A,,Clear,0,2012-12-30 12:53:00
5:53 AM,34.0,32.0,92,30.06,10.0,Calm,Calm,-,N/A,,Clear,0,2012-12-30 13:53:00
6:53 AM,35.1,32.0,89,30.08,10.0,Calm,Calm,-,N/A,,Clear,0,2012-12-30 14:53:00
7:53 AM,34.0,30.9,89,30.09,10.0,East,3.5,-,N/A,,Scattered Clouds,80,2012-12-30 15:53:00
8:53 AM,37.9,34.0,86,30.10,10.0,Calm,Calm,-,N/A,,Scattered Clouds,0,2012-12-30 16:53:00
9:53 AM,41.0,36.0,82,30.12,10.0,Calm,Calm,-,N/A,,Partly Cloudy,0,2012-12-30 17:53:00
10:53 AM,46.9,39.0,74,30.12,10.0,Calm,Calm,-,N/A,,Clear,0,2012-12-30 18:53:00
11:53 AM,51.1,37.9,61,30.09,10.0,West,5.8,-,N/A,,Partly Cloudy,260,2012-12-30 19:53:00
12:53 PM,51.1,36.0,56,30.06,10.0,Calm,Calm,-,N/A,,Scattered Clouds,0,2012-12-30 20:53:00
1:53 PM,53.1,33.1,47,30.05,10.0,North,10.4,-,N/A,,Clear,350,2012-12-30 21:53:00
2:53 PM,53.1,32.0,45,30.06,10.0,North,10.4,16.1,N/A,,Partly Cloudy,10,2012-12-30 22:53:00
3:53 PM,53.1,30.0,41,30.07,10.0,NNW,4.6,-,N/A,,Clear,330,2012-12-30 23:53:00
4:53 PM,51.1,28.9,43,30.06,10.0,North,5.8,-,N/A,,Clear,360,2012-12-31 00:53:00
5:53 PM,48.0,30.9,52,30.09,10.0,Calm,Calm,-,N/A,,Clear,0,2012-12-31 01:53:00
6:53 PM,43.0,30.9,62,30.10,10.0,NE,6.9,-,N/A,,Clear,50,2012-12-31 02:53:00
7:53 PM,41.0,33.1,73,30.12,10.0,North,3.5,-,N/A,,Clear,10,2012-12-31 03:53:00
8:53 PM,41.0,32.0,70,30.13,10.0,Calm,Calm,-,N/A,,Clear,0,2012-12-31 04:53:00
9:53 PM,37.9,32.0,79,30.15,10.0,Calm,Calm,-,N/A,,Clear,0,2012-12-31 05:53:00
10:53 PM,37.0,30.9,79,30.17,10.0,Calm,Calm,-,N/A,,Clear,0,2012-12-31 06:53:00
11:53 PM,37.0,30.0,76,30.19,10.0,Calm,Calm,-,N/A,,Clear,0,2012-12-31 07:53:00